Time,TemperatureF,DewpointF,PressureIn,WindDirection,WindDirectionDegrees,WindSpeedMPH,WindSpeedGustMPH,Humidity,HourlyPrecipIn,Conditions,Clouds,dailyrainin,SoftwareType,DateUTC
2013-08-14 00:01:00,82.6,78.3,30.03,WNW,287,0.0,0.0,87,0.00,,FEW060,0.03,VWS V14.01,2013-08-14 04:01:00,
2013-08-14 00:02:00,82.6,78.3,30.03,WNW,287,0.0,0.0,87,0.00,,FEW060,0.00,VWS V14.01,2013-08-14 04:02:00,
2013-08-14 00:03:00,82.6,78.3,30.03,ESE,114,1.0,3.0,87,0.00,,FEW060,0.00,VWS V14.01,2013-08-14 04:03:00,
2013-08-14 00:04:00,82.6,78.3,30.03,WNW,295,0.0,4.0,87,0.00,,FEW060,0.00,VWS V14.01,2013-08-14 04:04:00,
2013-08-14 00:09:00,82.6,78.3,30.03,WNW,298,0.0,1.0,87,0.00,,FEW060,0.00,VWS V14.01,2013-08-14 04:09:00,
2013-08-14 00:14:00,82.6,78.3,30.03,WNW,299,0.0,0.0,87,0.00,,FEW060,0.00,VWS V14.01,2013-08-14 04:14:00,
2013-08-14 00:19:00,82.6,78.3,30.03,NW,308,0.0,0.0,87,0.00,,FEW060,0.00,VWS V14.01,2013-08-14 04:19:00,
2013-08-14 00:24:00,82.6,78.3,30.03,NW,307,0.0,0.0,87,0.00,,FEW060,0.00,VWS V14.01,2013-08-14 04:24:00,
2013-08-14 00:29:00,82.6,78.3,30.03,West,280,0.0,0.0,87,0.00,,FEW060,0.00,VWS V14.01,2013-08-14 04:29:00,
2013-08-14 00:34:00,82.6,78.3,30.03,WSW,253,0.0,0.0,87,0.00,,FEW060,0.00,VWS V14.01,2013-08-14 04:34:00,
2013-08-14 00:39:00,82.6,78.7,30.03,WNW,288,0.0,0.0,88,0.00,,FEW060,0.00,VWS V14.01,2013-08-14 04:39:00,
2013-08-14 00:44:00,82.4,78.5,30.03,WNW,288,0.0,0.0,88,0.00,,FEW060,0.00,VWS V14.01,2013-08-14 04:44:00,
2013-08-14 00:49:00,82.4,78.5,30.02,SSE,158,0.0,0.0,88,0.00,,FEW060,0.00,VWS V14.01,2013-08-14 04:49:00,
2013-08-14 00:54:00,82.4,78.5,30.02,SSE,161,0.0,0.0,88,0.00,,FEW060,0.00,VWS V14.01,2013-08-14 04:54:00,
2013-08-14 01:00:00,82.2,78.3,30.02,SSE,162,0.0,0.0,88,0.00,,FEW060,0.00,VWS V14.01,2013-08-14 05:00:00,
2013-08-14 01:05:00,82.2,78.3,30.02,SSE,162,0.0,0.0,88,0.00,,SCT250,0.00,VWS V14.01,2013-08-14 05:05:00,
2013-08-14 01:10:00,82.0,77.8,30.02,SSE,165,0.0,0.0,87,0.00,,SCT250,0.00,VWS V14.01,2013-08-14 05:10:00,
2013-08-14 01:15:00,82.0,77.8,30.02,SSE,167,0.0,0.0,87,0.00,,SCT250,0.00,VWS V14.01,2013-08-14 05:15:00,
2013-08-14 01:20:00,81.8,77.2,30.02,SSW,204,0.0,0.0,86,0.00,,SCT250,0.00,VWS V14.01,2013-08-14 05:20:00,
2013-08-14 01:25:00,81.8,76.8,30.02,WSW,250,0.0,0.0,85,0.00,,SCT250,0.00,VWS V14.01,2013-08-14 05:25:00,
2013-08-14 01:30:00,81.8,76.5,30.02,West,263,2.0,3.0,84,0.00,,SCT250,0.00,VWS V14.01,2013-08-14 05:30:00,
2013-08-14 01:35:00,81.8,76.5,30.02,SSE,153,0.0,0.0,84,0.00,,SCT250,0.00,VWS V14.01,2013-08-14 05:35:00,
2013-08-14 01:40:00,81.8,76.5,30.02,West,272,0.0,1.0,84,0.00,,SCT250,0.00,VWS V14.01,2013-08-14 05:40:00,
2013-08-14 01:45:00,81.8,76.5,30.02,WNW,301,0.0,0.0,84,0.00,,SCT250,0.00,VWS V14.01,2013-08-14 05:45:00,
2013-08-14 01:50:00,81.8,76.1,30.02,WNW,283,0.0,1.0,83,0.00,,SCT250,0.00,VWS V14.01,2013-08-14 05:50:00,
2013-08-14 01:55:00,81.8,75.8,30.02,West,281,0.0,0.0,82,0.00,,SCT250,0.00,VWS V14.01,2013-08-14 05:55:00,
2013-08-14 02:00:00,81.8,75.0,30.01,SSW,212,0.0,1.0,80,0.00,,BKN100,0.00,VWS V14.01,2013-08-14 06:00:00,
2013-08-14 02:05:00,81.8,74.7,30.01,NW,322,2.0,2.0,79,0.00,,BKN100,0.00,VWS V14.01,2013-08-14 06:05:00,
2013-08-14 02:10:00,81.8,74.3,30.01,SSW,193,0.0,0.0,78,0.00,,BKN100,0.00,VWS V14.01,2013-08-14 06:10:00,
2013-08-14 02:15:00,81.8,73.9,30.02,WNW,298,0.0,0.0,77,0.00,,BKN100,0.00,VWS V14.01,2013-08-14 06:15:00,
2013-08-14 02:20:00,81.6,73.3,30.02,North,358,0.0,1.0,76,0.00,,BKN100,0.00,VWS V14.01,2013-08-14 06:20:00,
2013-08-14 02:25:00,81.4,73.5,30.02,WSW,250,0.0,0.0,77,0.00,,BKN100,0.00,VWS V14.01,2013-08-14 06:25:00,
2013-08-14 02:31:00,81.2,73.3,30.01,West,263,0.0,1.0,77,0.00,,BKN100,0.00,VWS V14.01,2013-08-14 06:31:00,
2013-08-14 02:36:00,81.1,73.6,30.01,WNW,293,0.0,0.0,78,0.00,,BKN100,0.00,VWS V14.01,2013-08-14 06:36:00,
2013-08-14 02:41:00,80.9,73.8,30.01,NW,305,0.0,2.0,79,0.00,,BKN100,0.00,VWS V14.01,2013-08-14 06:41:00,
2013-08-14 02:46:00,80.7,74.0,30.01,NW,305,0.0,0.0,80,0.00,,BKN100,0.00,VWS V14.01,2013-08-14 06:46:00,
2013-08-14 02:51:00,80.5,74.1,30.01,NW,305,0.0,0.0,81,0.00,,BKN100,0.00,VWS V14.01,2013-08-14 06:51:00,
2013-08-14 02:56:00,80.3,73.9,30.01,NW,307,0.0,0.0,81,0.00,,BKN100,0.00,VWS V14.01,2013-08-14 06:56:00,
2013-08-14 03:01:00,80.1,73.8,30.01,SW,220,0.0,0.0,81,0.00,,BKN080,0.00,VWS V14.01,2013-08-14 07:01:00,
2013-08-14 03:06:00,80.1,73.8,30.01,WNW,288,0.0,1.0,81,0.00,,BKN080,0.00,VWS V14.01,2013-08-14 07:06:00,
2013-08-14 03:11:00,79.9,73.6,30.01,South,171,0.0,0.0,81,0.00,,BKN080,0.00,VWS V14.01,2013-08-14 07:11:00,
2013-08-14 03:16:00,79.9,73.6,30.01,South,171,0.0,0.0,81,0.00,,BKN080,0.00,VWS V14.01,2013-08-14 07:16:00,
2013-08-14 03:21:00,79.8,73.8,30.01,WNW,290,0.0,0.0,82,0.00,,BKN080,0.00,VWS V14.01,2013-08-14 07:21:00,
2013-08-14 03:27:00,79.8,73.8,30.01,NW,319,2.0,2.0,82,0.00,,BKN080,0.00,VWS V14.01,2013-08-14 07:27:00,
2013-08-14 03:32:00,79.8,73.8,30.00,NW,319,0.0,0.0,82,0.00,,BKN080,0.00,VWS V14.01,2013-08-14 07:32:00,
2013-08-14 03:37:00,79.8,73.8,30.00,NW,319,0.0,0.0,82,0.00,,BKN080,0.00,VWS V14.01,2013-08-14 07:37:00,
2013-08-14 03:42:00,79.8,73.8,30.00,WNW,290,0.0,0.0,82,0.00,,BKN080,0.00,VWS V14.01,2013-08-14 07:42:00,
2013-08-14 03:47:00,79.6,73.6,30.00,WNW,290,0.0,0.0,82,0.00,,BKN080,0.00,VWS V14.01,2013-08-14 07:47:00,
2013-08-14 03:52:00,79.6,73.6,30.00,WNW,289,0.0,2.0,82,0.00,,BKN080,0.00,VWS V14.01,2013-08-14 07:52:00,
2013-08-14 03:57:00,79.6,74.0,30.00,WNW,289,0.0,0.0,83,0.00,,BKN080,0.00,VWS V14.01,2013-08-14 07:57:00,
2013-08-14 04:02:00,79.6,74.0,30.00,West,266,0.0,0.0,83,0.00,,BKN250,0.00,VWS V14.01,2013-08-14 08:02:00,
2013-08-14 04:07:00,79.4,73.8,30.00,SE,134,0.0,0.0,83,0.00,,BKN250,0.00,VWS V14.01,2013-08-14 08:07:00,
2013-08-14 04:12:00,79.4,74.2,30.00,SSE,152,0.0,0.0,84,0.00,,BKN250,0.00,VWS V14.01,2013-08-14 08:12:00,
2013-08-14 04:17:00,79.2,73.9,30.00,West,262,0.0,0.0,84,0.00,,BKN250,0.00,VWS V14.01,2013-08-14 08:17:00,
2013-08-14 04:22:00,79.2,73.9,30.00,West,262,0.0,0.0,84,0.00,,BKN250,0.00,VWS V14.01,2013-08-14 08:22:00,
2013-08-14 04:27:00,79.0,73.8,30.00,West,262,0.0,0.0,84,0.00,,BKN250,0.00,VWS V14.01,2013-08-14 08:27:00,
2013-08-14 04:32:00,79.0,73.8,30.00,West,264,0.0,0.0,84,0.00,,BKN250,0.00,VWS V14.01,2013-08-14 08:32:00,
2013-08-14 04:37:00,78.8,73.6,30.00,WSW,250,0.0,0.0,84,0.00,,BKN250,0.00,VWS V14.01,2013-08-14 08:37:00,
2013-08-14 04:42:00,78.8,73.6,30.00,WSW,250,0.0,0.0,84,0.00,,BKN250,0.00,VWS V14.01,2013-08-14 08:42:00,
2013-08-14 04:47:00,78.8,73.9,30.01,WSW,250,0.0,0.0,85,0.00,,BKN250,0.00,VWS V14.01,2013-08-14 08:47:00,
2013-08-14 04:52:00,78.8,73.9,30.01,WSW,250,0.0,0.0,85,0.00,,BKN250,0.00,VWS V14.01,2013-08-14 08:52:00,
2013-08-14 04:58:00,78.6,73.7,30.01,WSW,250,0.0,0.0,85,0.00,,BKN250,0.00,VWS V14.01,2013-08-14 08:58:00,
2013-08-14 05:03:00,78.6,73.7,30.01,WSW,250,0.0,0.0,85,0.00,,BKN250,0.00,VWS V14.01,2013-08-14 09:03:00,
2013-08-14 05:08:00,78.6,73.4,30.01,WSW,248,0.0,0.0,84,0.00,,BKN250,0.00,VWS V14.01,2013-08-14 09:08:00,
2013-08-14 05:13:00,78.6,73.4,30.01,WSW,248,0.0,0.0,84,0.00,,BKN250,0.00,VWS V14.01,2013-08-14 09:13:00,
2013-08-14 05:18:00,78.5,73.3,30.01,WSW,250,0.0,0.0,84,0.00,,BKN250,0.00,VWS V14.01,2013-08-14 09:18:00,
2013-08-14 05:23:00,78.5,73.3,30.01,WSW,250,0.0,0.0,84,0.00,,BKN250,0.00,VWS V14.01,2013-08-14 09:23:00,
2013-08-14 05:28:00,78.3,73.4,30.01,WSW,250,0.0,0.0,85,0.00,,BKN250,0.00,VWS V14.01,2013-08-14 09:28:00,
2013-08-14 05:29:00,78.3,73.4,30.01,WSW,250,0.0,0.0,85,0.00,,BKN250,0.00,VWS V14.01,2013-08-14 09:29:00,
2013-08-14 05:34:00,78.3,73.4,30.01,WSW,250,0.0,0.0,85,0.00,,BKN250,0.00,VWS V14.01,2013-08-14 09:34:00,
2013-08-14 05:39:00,78.1,73.2,30.01,WSW,250,0.0,0.0,85,0.00,,BKN250,0.00,VWS V14.01,2013-08-14 09:39:00,
2013-08-14 05:44:00,78.1,73.2,30.01,WSW,250,0.0,0.0,85,0.00,,BKN250,0.00,VWS V14.01,2013-08-14 09:44:00,
2013-08-14 05:49:00,77.9,73.0,30.01,WSW,250,0.0,0.0,85,0.00,,BKN250,0.00,VWS V14.01,2013-08-14 09:49:00,
2013-08-14 05:54:00,77.9,73.4,30.01,WNW,283,0.0,0.0,86,0.00,,BKN250,0.00,VWS V14.01,2013-08-14 09:54:00,
2013-08-14 05:59:00,77.7,73.2,30.01,West,273,0.0,0.0,86,0.00,,BKN250,0.00,VWS V14.01,2013-08-14 09:59:00,
2013-08-14 06:04:00,77.6,73.1,30.01,West,273,0.0,0.0,86,0.00,,SCT250,0.00,VWS V14.01,2013-08-14 10:04:00,
2013-08-14 06:09:00,77.6,73.4,30.01,West,273,0.0,0.0,87,0.00,,SCT250,0.00,VWS V14.01,2013-08-14 10:09:00,
2013-08-14 06:14:00,77.4,73.2,30.01,West,273,0.0,0.0,87,0.00,,SCT250,0.00,VWS V14.01,2013-08-14 10:14:00,
2013-08-14 06:19:00,77.4,73.2,30.01,West,273,0.0,0.0,87,0.00,,SCT250,0.00,VWS V14.01,2013-08-14 10:19:00,
2013-08-14 06:24:00,77.2,73.0,30.01,West,273,0.0,0.0,87,0.00,,SCT250,0.00,VWS V14.01,2013-08-14 10:24:00,
2013-08-14 06:29:00,77.2,73.0,30.01,West,273,0.0,0.0,87,0.00,,SCT250,0.00,VWS V14.01,2013-08-14 10:29:00,
2013-08-14 06:34:00,77.2,73.4,30.01,West,273,0.0,0.0,88,0.00,,SCT250,0.00,VWS V14.01,2013-08-14 10:34:00,
2013-08-14 06:39:00,77.0,73.2,30.01,West,273,0.0,0.0,88,0.00,,SCT250,0.00,VWS V14.01,2013-08-14 10:39:00,
2013-08-14 06:45:00,77.0,73.2,30.01,West,273,0.0,0.0,88,0.00,,SCT250,0.00,VWS V14.01,2013-08-14 10:45:00,
2013-08-14 06:50:00,76.8,73.0,30.02,West,273,0.0,0.0,88,0.00,,SCT250,0.00,VWS V14.01,2013-08-14 10:50:00,
2013-08-14 06:55:00,76.8,73.0,30.02,West,273,0.0,0.0,88,0.00,,SCT250,0.00,VWS V14.01,2013-08-14 10:55:00,
2013-08-14 07:00:00,76.8,73.3,30.02,West,273,0.0,0.0,89,0.00,,SCT250,0.00,VWS V14.01,2013-08-14 11:00:00,
2013-08-14 07:05:00,76.7,73.2,30.03,West,261,0.0,0.0,89,0.00,,SCT250,0.00,VWS V14.01,2013-08-14 11:05:00,
2013-08-14 07:10:00,76.8,73.3,30.03,West,261,0.0,0.0,89,0.00,,SCT250,0.00,VWS V14.01,2013-08-14 11:10:00,
2013-08-14 07:15:00,76.8,73.3,30.04,West,261,0.0,0.0,89,0.00,,SCT250,0.00,VWS V14.01,2013-08-14 11:15:00,
2013-08-14 07:20:00,77.0,73.5,30.04,West,261,0.0,0.0,89,0.00,,SCT250,0.00,VWS V14.01,2013-08-14 11:20:00,
2013-08-14 07:25:00,77.0,73.5,30.04,West,261,0.0,0.0,89,0.00,,SCT250,0.00,VWS V14.01,2013-08-14 11:25:00,
2013-08-14 07:30:00,77.2,73.7,30.05,West,261,0.0,0.0,89,0.00,,SCT250,0.00,VWS V14.01,2013-08-14 11:30:00,
2013-08-14 07:35:00,77.2,73.4,30.05,West,261,0.0,0.0,88,0.00,,SCT250,0.00,VWS V14.01,2013-08-14 11:35:00,
2013-08-14 07:40:00,77.2,73.4,30.05,West,261,0.0,0.0,88,0.00,,SCT250,0.00,VWS V14.01,2013-08-14 11:40:00,
2013-08-14 07:46:00,77.4,73.9,30.05,West,261,0.0,0.0,89,0.00,,SCT250,0.00,VWS V14.01,2013-08-14 11:46:00,
2013-08-14 07:51:00,77.4,73.9,30.05,SSE,155,0.0,0.0,89,0.00,,SCT250,0.00,VWS V14.01,2013-08-14 11:51:00,
2013-08-14 07:56:00,77.6,74.1,30.05,SSE,155,0.0,0.0,89,0.00,,SCT250,0.00,VWS V14.01,2013-08-14 11:56:00,
2013-08-14 08:01:00,77.7,73.9,30.05,SSE,155,0.0,0.0,88,0.00,,SCT250,0.00,VWS V14.01,2013-08-14 12:01:00,
2013-08-14 08:06:00,77.9,74.1,30.05,SSE,155,0.0,0.0,88,0.00,,SCT250,0.00,VWS V14.01,2013-08-14 12:06:00,
2013-08-14 08:11:00,78.3,74.5,30.05,West,262,0.0,1.0,88,0.00,,SCT250,0.00,VWS V14.01,2013-08-14 12:11:00,
2013-08-14 08:17:00,78.6,74.4,30.05,West,278,0.0,0.0,87,0.00,,SCT250,0.00,VWS V14.01,2013-08-14 12:17:00,
2013-08-14 08:22:00,78.6,74.1,30.05,West,278,0.0,0.0,86,0.00,,SCT250,0.00,VWS V14.01,2013-08-14 12:22:00,
2013-08-14 08:27:00,78.6,74.1,30.05,South,171,0.0,0.0,86,0.00,,SCT250,0.00,VWS V14.01,2013-08-14 12:27:00,
2013-08-14 08:32:00,78.6,74.4,30.05,South,171,0.0,0.0,87,0.00,,SCT250,0.00,VWS V14.01,2013-08-14 12:32:00,
2013-08-14 08:37:00,79.2,74.7,30.05,South,171,0.0,0.0,86,0.00,,SCT250,0.00,VWS V14.01,2013-08-14 12:37:00,
2013-08-14 08:42:00,79.6,74.7,30.05,South,172,0.0,0.0,85,0.00,,SCT250,0.00,VWS V14.01,2013-08-14 12:42:00,
2013-08-14 08:47:00,79.8,74.5,30.05,WSW,245,0.0,3.0,84,0.00,,SCT250,0.00,VWS V14.01,2013-08-14 12:47:00,
2013-08-14 08:52:00,80.1,74.8,30.05,WSW,258,0.0,0.0,84,0.00,,SCT250,0.00,VWS V14.01,2013-08-14 12:52:00,
2013-08-14 08:57:00,80.9,75.6,30.05,WSW,258,0.0,0.0,84,0.00,,SCT250,0.00,VWS V14.01,2013-08-14 12:57:00,
2013-08-14 09:02:00,81.6,75.6,30.06,WSW,247,0.0,0.0,82,0.00,,SCT250,0.00,VWS V14.01,2013-08-14 13:02:00,
2013-08-14 09:08:00,81.4,74.6,30.06,WSW,240,0.0,0.0,80,0.00,,SCT250,0.00,VWS V14.01,2013-08-14 13:08:00,
2013-08-14 09:13:00,80.9,74.5,30.06,WSW,251,0.0,0.0,81,0.00,,SCT250,0.00,VWS V14.01,2013-08-14 13:13:00,
2013-08-14 09:18:00,80.9,74.9,30.06,WSW,251,0.0,0.0,82,0.00,,SCT250,0.00,VWS V14.01,2013-08-14 13:18:00,
2013-08-14 09:23:00,80.9,74.9,30.06,WSW,251,2.0,2.0,82,0.00,,SCT250,0.00,VWS V14.01,2013-08-14 13:23:00,
2013-08-14 09:28:00,81.1,75.1,30.06,WSW,251,0.0,0.0,82,0.00,,SCT250,0.00,VWS V14.01,2013-08-14 13:28:00,
2013-08-14 09:33:00,81.4,75.0,30.06,WSW,251,0.0,0.0,81,0.00,,SCT250,0.00,VWS V14.01,2013-08-14 13:33:00,
2013-08-14 09:38:00,82.0,75.6,30.06,WSW,251,0.0,0.0,81,0.00,,SCT250,0.00,VWS V14.01,2013-08-14 13:38:00,
2013-08-14 09:43:00,82.6,75.8,30.06,WSW,253,0.0,0.0,80,0.00,,SCT250,0.00,VWS V14.01,2013-08-14 13:43:00,
2013-08-14 09:48:00,82.8,75.6,30.06,WSW,253,0.0,0.0,79,0.00,,SCT250,0.00,VWS V14.01,2013-08-14 13:48:00,
2013-08-14 09:53:00,83.0,75.8,30.06,WSW,253,0.0,1.0,79,0.00,,SCT250,0.00,VWS V14.01,2013-08-14 13:53:00,
2013-08-14 09:58:00,83.4,75.8,30.06,SSE,150,0.0,0.0,78,0.00,,SCT250,0.00,VWS V14.01,2013-08-14 13:58:00,
2013-08-14 10:03:00,83.8,76.2,30.06,SSE,150,0.0,1.0,78,0.00,,SCT250,0.00,VWS V14.01,2013-08-14 14:03:00,
2013-08-14 10:08:00,84.3,75.9,30.06,SW,223,0.0,3.0,76,0.00,,SCT250,0.00,VWS V14.01,2013-08-14 14:08:00,
2013-08-14 10:13:00,84.7,75.9,30.06,SW,228,1.0,2.0,75,0.00,,SCT250,0.00,VWS V14.01,2013-08-14 14:13:00,
2013-08-14 10:18:00,84.9,75.3,30.06,SW,228,0.0,0.0,73,0.00,,SCT250,0.00,VWS V14.01,2013-08-14 14:18:00,
2013-08-14 10:23:00,85.3,75.7,30.06,SW,228,0.0,0.0,73,0.00,,SCT250,0.00,VWS V14.01,2013-08-14 14:23:00,
2013-08-14 10:28:00,85.9,76.2,30.06,SW,228,0.0,0.0,73,0.00,,SCT250,0.00,VWS V14.01,2013-08-14 14:28:00,
2013-08-14 10:33:00,86.5,76.0,30.06,SW,228,0.0,0.0,71,0.00,,BKN060,0.00,VWS V14.01,2013-08-14 14:33:00,
2013-08-14 10:38:00,86.7,75.8,30.06,SW,228,0.0,0.0,70,0.00,,BKN060,0.00,VWS V14.01,2013-08-14 14:38:00,
2013-08-14 10:43:00,86.1,75.2,30.06,SW,228,0.0,0.0,70,0.00,,BKN060,0.00,VWS V14.01,2013-08-14 14:43:00,
2013-08-14 10:48:00,85.7,75.6,30.06,SW,228,0.0,0.0,72,0.00,,BKN060,0.00,VWS V14.01,2013-08-14 14:48:00,
2013-08-14 10:53:00,85.7,75.6,30.06,SW,228,0.0,0.0,72,0.00,,BKN060,0.00,VWS V14.01,2013-08-14 14:53:00,
2013-08-14 10:59:00,85.7,75.6,30.06,SW,228,0.0,0.0,72,0.00,,BKN060,0.00,VWS V14.01,2013-08-14 14:59:00,
2013-08-14 11:04:00,85.7,75.6,30.06,SW,228,0.0,0.0,72,0.00,,BKN,0.00,VWS V14.01,2013-08-14 15:04:00,
2013-08-14 11:09:00,85.7,75.2,30.06,SW,233,0.0,4.0,71,0.00,,BKN,0.00,VWS V14.01,2013-08-14 15:09:00,
2013-08-14 11:14:00,85.5,75.0,30.06,SW,233,0.0,0.0,71,0.00,,BKN,0.00,VWS V14.01,2013-08-14 15:14:00,
2013-08-14 11:19:00,85.1,75.1,30.06,SW,233,0.0,0.0,72,0.00,,BKN,0.00,VWS V14.01,2013-08-14 15:19:00,
2013-08-14 11:24:00,84.9,74.9,30.06,SW,233,0.0,0.0,72,0.00,,BKN,0.00,VWS V14.01,2013-08-14 15:24:00,
2013-08-14 11:29:00,84.7,75.5,30.06,SW,233,0.0,0.0,74,0.00,,BKN,0.00,VWS V14.01,2013-08-14 15:29:00,
2013-08-14 11:34:00,85.3,76.1,30.06,SW,233,0.0,0.0,74,0.00,,BKN,0.00,VWS V14.01,2013-08-14 15:34:00,
2013-08-14 11:39:00,86.3,76.6,30.06,SW,233,0.0,0.0,73,0.00,,BKN,0.00,VWS V14.01,2013-08-14 15:39:00,
2013-08-14 11:44:00,87.2,75.4,30.06,WSW,243,0.0,2.0,68,0.00,,BKN,0.00,VWS V14.01,2013-08-14 15:44:00,
2013-08-14 11:49:00,86.7,75.3,30.06,NNW,342,0.0,0.0,69,0.00,,BKN,0.00,VWS V14.01,2013-08-14 15:49:00,
2013-08-14 11:54:00,86.1,74.8,30.06,NNW,341,0.0,0.0,69,0.00,,BKN,0.00,VWS V14.01,2013-08-14 15:54:00,
2013-08-14 12:00:00,85.9,75.4,30.06,NNW,341,0.0,0.0,71,0.00,,BKN,0.00,VWS V14.01,2013-08-14 16:00:00,
2013-08-14 12:05:00,85.3,75.7,30.06,NNW,341,0.0,0.0,73,0.00,,BKN080,0.00,VWS V14.01,2013-08-14 16:05:00,
2013-08-14 12:10:00,85.1,75.5,30.06,NNW,341,0.0,0.0,73,0.00,,BKN080,0.00,VWS V14.01,2013-08-14 16:10:00,
2013-08-14 12:15:00,85.7,76.5,30.06,NNW,341,0.0,0.0,74,0.00,,BKN080,0.00,VWS V14.01,2013-08-14 16:15:00,
2013-08-14 12:21:00,86.3,76.6,30.05,NNW,339,0.0,0.0,73,0.00,,BKN080,0.00,VWS V14.01,2013-08-14 16:21:00,
2013-08-14 12:26:00,86.1,75.2,30.05,WNW,293,0.0,0.0,70,0.00,,BKN080,0.00,VWS V14.01,2013-08-14 16:26:00,
2013-08-14 12:31:00,86.5,76.4,30.05,SW,233,0.0,2.0,72,0.00,,BKN080,0.00,VWS V14.01,2013-08-14 16:31:00,
2013-08-14 12:36:00,86.7,76.2,30.05,WNW,289,0.0,0.0,71,0.00,,BKN080,0.00,VWS V14.01,2013-08-14 16:36:00,
2013-08-14 12:41:00,86.7,76.2,30.05,ENE,70,0.0,2.0,71,0.00,,BKN080,0.00,VWS V14.01,2013-08-14 16:41:00,
2013-08-14 12:46:00,86.5,76.4,30.04,NW,305,0.0,0.0,72,0.00,,BKN080,0.00,VWS V14.01,2013-08-14 16:46:00,
2013-08-14 12:53:00,84.7,75.1,30.04,West,281,0.0,0.0,73,0.00,,BKN080,0.00,VWS V14.01,2013-08-14 16:53:00,
2013-08-14 12:58:00,83.0,73.1,30.04,SW,236,0.0,0.0,72,0.00,,BKN080,0.00,VWS V14.01,2013-08-14 16:58:00,
2013-08-14 13:04:00,81.6,72.5,30.05,WNW,283,0.0,0.0,74,0.00,,BKN100,0.00,VWS V14.01,2013-08-14 17:04:00,
2013-08-14 13:09:00,81.1,72.4,30.05,West,278,0.0,0.0,75,0.00,,BKN100,0.00,VWS V14.01,2013-08-14 17:09:00,
2013-08-14 13:14:00,80.9,73.4,30.05,NW,304,0.0,1.0,78,0.00,,BKN100,0.00,VWS V14.01,2013-08-14 17:14:00,
2013-08-14 13:19:00,81.2,74.8,30.05,NW,304,0.0,0.0,81,0.00,,BKN100,0.00,VWS V14.01,2013-08-14 17:19:00,
2013-08-14 13:24:00,82.0,75.2,30.05,NW,305,0.0,0.0,80,0.00,,BKN100,0.00,VWS V14.01,2013-08-14 17:24:00,
2013-08-14 13:29:00,83.4,76.6,30.05,WNW,300,0.0,0.0,80,0.00,,BKN100,0.00,VWS V14.01,2013-08-14 17:29:00,
2013-08-14 13:35:00,84.3,75.9,30.05,WNW,302,0.0,0.0,76,0.00,,BKN100,0.00,VWS V14.01,2013-08-14 17:35:00,
2013-08-14 13:40:00,85.5,76.3,30.05,WNW,295,0.0,0.0,74,0.00,,BKN100,0.00,VWS V14.01,2013-08-14 17:40:00,
2013-08-14 13:45:00,85.3,75.2,30.05,NW,304,0.0,0.0,72,0.00,,BKN100,0.00,VWS V14.01,2013-08-14 17:45:00,
2013-08-14 13:52:00,84.3,76.7,30.05,North,353,0.0,1.0,78,0.02,,BKN100,0.02,VWS V14.01,2013-08-14 17:52:00,
2013-08-14 13:57:00,82.8,76.4,30.05,ENE,65,0.0,0.0,81,0.02,,BKN100,0.02,VWS V14.01,2013-08-14 17:57:00,
2013-08-14 14:03:00,80.7,75.8,30.05,NW,309,0.0,0.0,85,0.11,,,0.11,VWS V14.01,2013-08-14 18:03:00,
2013-08-14 14:08:00,79.2,75.0,30.05,SSW,212,0.0,0.0,87,0.16,,,0.16,VWS V14.01,2013-08-14 18:08:00,
2013-08-14 14:14:00,78.6,75.4,30.05,SSW,211,0.0,0.0,90,0.30,,,0.30,VWS V14.01,2013-08-14 18:14:00,
2013-08-14 14:19:00,78.5,75.7,30.05,SSW,211,0.0,0.0,91,0.35,,,0.35,VWS V14.01,2013-08-14 18:19:00,
2013-08-14 14:26:00,78.1,75.9,30.05,SSW,212,0.0,0.0,93,0.35,,,0.35,VWS V14.01,2013-08-14 18:26:00,
2013-08-14 14:32:00,78.1,75.9,30.05,SSW,212,0.0,0.0,93,0.36,,,0.36,VWS V14.01,2013-08-14 18:32:00,
2013-08-14 14:37:00,78.1,76.2,30.05,SSW,212,0.0,0.0,94,0.36,,,0.36,VWS V14.01,2013-08-14 18:37:00,
2013-08-14 14:43:00,78.1,76.2,30.05,SSW,212,0.0,0.0,94,0.36,,,0.36,VWS V14.01,2013-08-14 18:43:00,
2013-08-14 14:48:00,78.3,76.8,30.06,SSW,212,0.0,0.0,95,0.35,,,0.36,VWS V14.01,2013-08-14 18:48:00,
2013-08-14 14:53:00,78.5,76.9,30.06,SSW,212,0.0,0.0,95,0.35,,,0.37,VWS V14.01,2013-08-14 18:53:00,
2013-08-14 14:58:00,78.5,76.9,30.06,NW,313,0.0,0.0,95,0.37,,,0.39,VWS V14.01,2013-08-14 18:58:00,
2013-08-14 15:03:00,78.1,76.2,30.06,NW,315,0.0,0.0,94,0.35,,OVC050,0.43,VWS V14.01,2013-08-14 19:03:00,
2013-08-14 15:08:00,77.6,75.7,30.06,NW,315,0.0,0.0,94,0.30,,OVC050,0.45,VWS V14.01,2013-08-14 19:08:00,
2013-08-14 15:13:00,77.4,75.9,30.06,NW,315,0.0,1.0,95,0.20,,OVC050,0.46,VWS V14.01,2013-08-14 19:13:00,
2013-08-14 15:18:00,77.2,75.7,30.06,NNW,339,0.0,0.0,95,0.11,,OVC050,0.46,VWS V14.01,2013-08-14 19:18:00,
2013-08-14 15:24:00,76.8,75.3,30.06,NNW,345,0.0,1.0,95,0.12,,OVC050,0.47,VWS V14.01,2013-08-14 19:24:00,
2013-08-14 15:30:00,76.7,75.2,30.06,North,358,0.0,0.0,95,0.11,,OVC050,0.47,VWS V14.01,2013-08-14 19:30:00,
2013-08-14 15:35:00,76.7,75.2,30.05,North,358,0.0,0.0,95,0.11,,OVC050,0.47,VWS V14.01,2013-08-14 19:35:00,
2013-08-14 15:40:00,76.7,75.2,30.05,NW,311,0.0,0.0,95,0.11,,OVC050,0.47,VWS V14.01,2013-08-14 19:40:00,
2013-08-14 15:45:00,76.7,75.2,30.05,North,10,0.0,0.0,95,0.11,,OVC050,0.47,VWS V14.01,2013-08-14 19:45:00,
2013-08-14 15:50:00,76.7,75.5,30.05,North,10,0.0,0.0,96,0.11,,OVC050,0.47,VWS V14.01,2013-08-14 19:50:00,
2013-08-14 15:56:00,76.7,75.2,30.05,NNE,18,0.0,0.0,95,0.10,,OVC050,0.47,VWS V14.01,2013-08-14 19:56:00,
2013-08-14 16:01:00,76.7,75.5,30.05,NNE,18,0.0,0.0,96,0.05,,OVC020,0.47,VWS V14.01,2013-08-14 20:01:00,
2013-08-14 16:06:00,76.8,75.6,30.05,NNE,18,0.0,0.0,96,0.03,,OVC020,0.47,VWS V14.01,2013-08-14 20:06:00,
2013-08-14 16:12:00,76.8,75.6,30.05,NNE,18,0.0,0.0,96,0.01,,OVC020,0.47,VWS V14.01,2013-08-14 20:12:00,
2013-08-14 16:17:00,76.8,75.6,30.05,NNE,18,0.0,0.0,96,0.01,,OVC020,0.47,VWS V14.01,2013-08-14 20:17:00,
2013-08-14 16:23:00,76.7,75.5,30.05,NNE,17,0.0,0.0,96,0.00,,OVC020,0.47,VWS V14.01,2013-08-14 20:23:00,
2013-08-14 16:29:00,76.7,75.5,30.05,ESE,109,0.0,2.0,96,0.00,,OVC020,0.47,VWS V14.01,2013-08-14 20:29:00,
2013-08-14 16:34:00,76.7,75.5,30.05,NNW,337,0.0,0.0,96,0.00,,OVC020,0.47,VWS V14.01,2013-08-14 20:34:00,
2013-08-14 16:40:00,76.8,75.6,30.05,NNW,339,0.0,0.0,96,0.00,,OVC020,0.47,VWS V14.01,2013-08-14 20:40:00,
2013-08-14 16:46:00,76.8,75.6,30.05,NNE,20,0.0,0.0,96,0.00,,OVC020,0.47,VWS V14.01,2013-08-14 20:46:00,
2013-08-14 16:51:00,77.2,76.0,30.05,North,8,0.0,0.0,96,0.00,,OVC020,0.47,VWS V14.01,2013-08-14 20:51:00,
2013-08-14 16:56:00,77.9,76.7,30.05,North,8,0.0,0.0,96,0.00,,OVC020,0.47,VWS V14.01,2013-08-14 20:56:00,
2013-08-14 17:01:00,78.3,77.1,30.05,NNE,18,0.0,0.0,96,0.00,,OVC020,0.47,VWS V14.01,2013-08-14 21:01:00,
2013-08-14 17:06:00,78.3,76.8,30.05,North,7,0.0,1.0,95,0.00,,OVC020,0.47,VWS V14.01,2013-08-14 21:06:00,
2013-08-14 17:11:00,78.5,76.9,30.05,ENE,70,0.0,0.0,95,0.00,,OVC020,0.47,VWS V14.01,2013-08-14 21:11:00,
2013-08-14 17:16:00,79.0,77.1,30.06,NW,309,1.0,5.0,94,0.00,,OVC020,0.47,VWS V14.01,2013-08-14 21:16:00,
2013-08-14 17:21:00,78.5,76.0,30.06,West,275,0.0,0.0,92,0.00,,OVC020,0.47,VWS V14.01,2013-08-14 21:21:00,
2013-08-14 17:26:00,78.1,75.6,30.06,North,4,0.0,2.0,92,0.00,,OVC020,0.47,VWS V14.01,2013-08-14 21:26:00,
2013-08-14 17:31:00,78.1,75.6,30.06,NNE,21,0.0,0.0,92,0.00,,OVC020,0.47,VWS V14.01,2013-08-14 21:31:00,
2013-08-14 17:36:00,77.9,75.7,30.06,NNE,21,0.0,0.0,93,0.00,,OVC020,0.47,VWS V14.01,2013-08-14 21:36:00,
2013-08-14 17:41:00,77.6,75.1,30.06,NE,42,0.0,0.0,92,0.00,,OVC020,0.47,VWS V14.01,2013-08-14 21:41:00,
2013-08-14 17:46:00,77.4,74.9,30.07,NE,42,0.0,0.0,92,0.00,,OVC020,0.47,VWS V14.01,2013-08-14 21:46:00,
2013-08-14 17:51:00,77.0,74.5,30.07,NE,42,0.0,0.0,92,0.00,,OVC020,0.47,VWS V14.01,2013-08-14 21:51:00,
2013-08-14 17:56:00,76.8,74.3,30.07,NW,305,0.0,1.0,92,0.00,,OVC020,0.47,VWS V14.01,2013-08-14 21:56:00,
2013-08-14 18:01:00,76.5,74.3,30.05,North,1,0.0,0.0,93,0.00,,OVC025,0.47,VWS V14.01,2013-08-14 22:01:00,
2013-08-14 18:07:00,76.5,74.3,30.05,North,1,0.0,0.0,93,0.00,,OVC025,0.47,VWS V14.01,2013-08-14 22:07:00,
2013-08-14 18:12:00,76.3,74.1,30.05,North,0,0.0,0.0,93,0.00,,OVC025,0.47,VWS V14.01,2013-08-14 22:12:00,
2013-08-14 18:17:00,76.3,74.1,30.06,North,0,0.0,0.0,93,0.00,,OVC025,0.47,VWS V14.01,2013-08-14 22:17:00,
2013-08-14 18:22:00,76.3,74.4,30.06,North,0,0.0,0.0,94,0.00,,OVC025,0.47,VWS V14.01,2013-08-14 22:22:00,
2013-08-14 18:27:00,76.3,74.4,30.06,East,98,0.0,1.0,94,0.01,,OVC025,0.48,VWS V14.01,2013-08-14 22:27:00,
2013-08-14 18:33:00,76.1,74.2,30.07,North,358,0.0,0.0,94,0.01,,OVC025,0.48,VWS V14.01,2013-08-14 22:33:00,
2013-08-14 18:38:00,76.0,74.2,30.07,North,6,0.0,0.0,94,0.02,,OVC025,0.49,VWS V14.01,2013-08-14 22:38:00,
2013-08-14 18:43:00,76.0,74.2,30.07,North,6,0.0,0.0,94,0.02,,OVC025,0.49,VWS V14.01,2013-08-14 22:43:00,
2013-08-14 18:48:00,76.0,74.5,30.08,North,6,0.0,0.0,95,0.03,,OVC025,0.50,VWS V14.01,2013-08-14 22:48:00,
2013-08-14 18:53:00,75.8,74.3,30.08,North,6,0.0,0.0,95,0.04,,OVC025,0.51,VWS V14.01,2013-08-14 22:53:00,
2013-08-14 18:58:00,75.8,74.3,30.08,North,6,0.0,0.0,95,0.04,,OVC025,0.51,VWS V14.01,2013-08-14 22:58:00,
2013-08-14 19:03:00,75.6,74.1,30.08,NE,45,0.0,0.0,95,0.05,,OVC100,0.52,VWS V14.01,2013-08-14 23:03:00,
2013-08-14 19:08:00,75.4,73.9,30.08,NE,45,0.0,0.0,95,0.05,,OVC100,0.52,VWS V14.01,2013-08-14 23:08:00,
2013-08-14 19:13:00,75.4,73.9,30.08,NE,45,0.0,0.0,95,0.05,,OVC100,0.52,VWS V14.01,2013-08-14 23:13:00,
2013-08-14 19:19:00,75.3,73.8,30.08,NE,45,0.0,0.0,95,0.06,,OVC100,0.53,VWS V14.01,2013-08-14 23:19:00,
2013-08-14 19:24:00,75.3,73.8,30.08,NE,45,0.0,0.0,95,0.08,,OVC100,0.55,VWS V14.01,2013-08-14 23:24:00,
2013-08-14 19:29:00,75.1,73.6,30.08,NE,45,0.0,0.0,95,0.09,,OVC100,0.57,VWS V14.01,2013-08-14 23:29:00,
2013-08-14 19:34:00,74.9,73.4,30.11,NE,44,0.0,0.0,95,0.11,,OVC100,0.59,VWS V14.01,2013-08-14 23:34:00,
2013-08-14 19:39:00,74.9,73.4,30.11,NE,44,0.0,0.0,95,0.11,,OVC100,0.60,VWS V14.01,2013-08-14 23:39:00,
2013-08-14 19:44:00,74.9,73.4,30.11,WNW,300,0.0,0.0,95,0.12,,OVC100,0.61,VWS V14.01,2013-08-14 23:44:00,
2013-08-14 19:49:00,74.7,73.2,30.09,WNW,300,0.0,0.0,95,0.12,,OVC100,0.62,VWS V14.01,2013-08-14 23:49:00,
2013-08-14 19:54:00,74.6,73.4,30.09,WNW,300,0.0,0.0,96,0.12,,OVC100,0.63,VWS V14.01,2013-08-14 23:54:00,
2013-08-14 19:59:00,74.6,73.4,30.09,NW,306,0.0,0.0,96,0.13,,OVC100,0.64,VWS V14.01,2013-08-14 23:59:00,
2013-08-14 20:05:00,74.6,73.4,30.09,NW,306,0.0,0.0,96,0.13,,,0.65,VWS V14.01,2013-08-15 00:05:00,
2013-08-14 20:10:00,74.6,73.4,30.09,NW,306,0.0,0.0,96,0.14,,,0.66,VWS V14.01,2013-08-15 00:10:00,
2013-08-14 20:15:00,74.4,73.2,30.09,NW,306,0.0,0.0,96,0.13,,,0.66,VWS V14.01,2013-08-15 00:15:00,
2013-08-14 20:20:00,74.4,73.2,30.10,NW,306,0.0,0.0,96,0.14,,,0.67,VWS V14.01,2013-08-15 00:20:00,
2013-08-14 20:25:00,74.4,73.2,30.10,NW,306,0.0,0.0,96,0.12,,,0.67,VWS V14.01,2013-08-15 00:25:00,
2013-08-14 20:30:00,74.2,73.0,30.11,NW,306,0.0,0.0,96,0.10,,,0.68,VWS V14.01,2013-08-15 00:30:00,
2013-08-14 20:35:00,74.2,73.0,30.11,NW,306,0.0,0.0,96,0.09,,,0.68,VWS V14.01,2013-08-15 00:35:00,
2013-08-14 20:40:00,74.2,73.0,30.11,NW,306,0.0,0.0,96,0.08,,,0.68,VWS V14.01,2013-08-15 00:40:00,
2013-08-14 20:45:00,74.2,73.0,30.11,NW,306,0.0,0.0,96,0.08,,,0.69,VWS V14.01,2013-08-15 00:45:00,
2013-08-14 20:50:00,74.2,73.0,30.11,NW,306,0.0,0.0,96,0.07,,,0.69,VWS V14.01,2013-08-15 00:50:00,
2013-08-14 20:56:00,74.2,73.0,30.11,NW,306,0.0,0.0,96,0.06,,,0.69,VWS V14.01,2013-08-15 00:56:00,
2013-08-14 21:01:00,74.2,73.3,30.12,NW,306,0.0,0.0,97,0.05,,OVC070,0.69,VWS V14.01,2013-08-15 01:01:00,
2013-08-14 21:06:00,74.2,73.3,30.12,NW,306,0.0,0.0,97,0.04,,OVC070,0.69,VWS V14.01,2013-08-15 01:06:00,
2013-08-14 21:11:00,74.2,73.3,30.12,NW,306,0.0,0.0,97,0.03,,OVC070,0.69,VWS V14.01,2013-08-15 01:11:00,
2013-08-14 21:16:00,74.2,73.3,30.12,NW,306,0.0,0.0,97,0.03,,OVC070,0.69,VWS V14.01,2013-08-15 01:16:00,
2013-08-14 21:19:00,74.2,73.3,30.12,NW,306,0.0,0.0,97,0.02,,OVC070,0.69,VWS V14.01,2013-08-15 01:19:00,
2013-08-14 21:24:00,74.2,73.3,30.12,NW,306,0.0,0.0,97,0.02,,OVC070,0.69,VWS V14.01,2013-08-15 01:24:00,
2013-08-14 21:29:00,74.2,73.3,30.12,NW,306,0.0,0.0,97,0.01,,OVC070,0.69,VWS V14.01,2013-08-15 01:29:00,
2013-08-14 21:34:00,74.0,73.1,30.12,NW,306,0.0,0.0,97,0.01,,OVC070,0.69,VWS V14.01,2013-08-15 01:34:00,
2013-08-14 21:39:00,74.0,73.1,30.12,NW,306,0.0,0.0,97,0.01,,OVC070,0.69,VWS V14.01,2013-08-15 01:39:00,
2013-08-14 21:44:00,74.0,73.1,30.12,NW,306,0.0,0.0,97,0.01,,OVC070,0.69,VWS V14.01,2013-08-15 01:44:00,
2013-08-14 21:49:00,74.0,73.1,30.13,NW,306,0.0,0.0,97,0.00,,OVC070,0.69,VWS V14.01,2013-08-15 01:49:00,
2013-08-14 21:54:00,74.0,73.1,30.13,NW,306,0.0,0.0,97,0.00,,OVC070,0.69,VWS V14.01,2013-08-15 01:54:00,
2013-08-14 22:00:00,74.0,73.1,30.13,NW,306,0.0,0.0,97,0.00,,OVC070,0.69,VWS V14.01,2013-08-15 02:00:00,
2013-08-14 22:05:00,74.2,73.3,30.12,NW,306,0.0,0.0,97,0.00,,-RA,0.69,VWS V14.01,2013-08-15 02:05:00,
2013-08-14 22:10:00,74.2,73.3,30.12,NW,306,0.0,0.0,97,0.00,,-RA,0.69,VWS V14.01,2013-08-15 02:10:00,
2013-08-14 22:15:00,74.2,73.3,30.12,NW,306,0.0,0.0,97,0.00,,-RA,0.69,VWS V14.01,2013-08-15 02:15:00,
2013-08-14 22:20:00,74.2,73.3,30.11,NW,306,0.0,0.0,97,0.00,,-RA,0.69,VWS V14.01,2013-08-15 02:20:00,
2013-08-14 22:25:00,74.4,73.5,30.11,NW,306,0.0,0.0,97,0.00,,-RA,0.69,VWS V14.01,2013-08-15 02:25:00,
2013-08-14 22:30:00,74.4,73.5,30.11,NW,306,0.0,0.0,97,0.00,,BKN030,0.69,VWS V14.01,2013-08-15 02:30:00,
2013-08-14 22:35:00,74.4,73.5,30.12,NW,306,0.0,0.0,97,0.00,,BKN030,0.69,VWS V14.01,2013-08-15 02:35:00,
2013-08-14 22:40:00,74.4,73.5,30.12,NW,306,0.0,0.0,97,0.00,,BKN030,0.69,VWS V14.01,2013-08-15 02:40:00,
2013-08-14 22:45:00,74.4,73.5,30.12,NW,306,0.0,0.0,97,0.00,,BKN030,0.69,VWS V14.01,2013-08-15 02:45:00,
2013-08-14 22:46:00,74.4,73.5,30.13,NW,306,0.0,0.0,97,0.00,,BKN030,0.69,VWS V14.01,2013-08-15 02:46:00,
2013-08-14 22:51:00,74.6,73.7,30.13,NW,306,0.0,0.0,97,0.00,,BKN030,0.69,VWS V14.01,2013-08-15 02:51:00,
2013-08-14 22:56:00,74.6,73.7,30.13,NW,306,0.0,0.0,97,0.00,,BKN030,0.69,VWS V14.01,2013-08-15 02:56:00,
2013-08-14 23:01:00,74.6,73.7,30.14,NW,306,0.0,0.0,97,0.00,,OVC030,0.69,VWS V14.01,2013-08-15 03:01:00,
2013-08-14 23:06:00,74.6,73.7,30.14,NW,306,0.0,0.0,97,0.00,,OVC030,0.69,VWS V14.01,2013-08-15 03:06:00,
2013-08-14 23:11:00,74.6,73.7,30.14,WNW,302,0.0,0.0,97,0.00,,OVC030,0.69,VWS V14.01,2013-08-15 03:11:00,
2013-08-14 23:16:00,74.6,73.7,30.14,WNW,302,0.0,0.0,97,0.00,,OVC030,0.69,VWS V14.01,2013-08-15 03:16:00,
2013-08-14 23:21:00,74.6,73.7,30.14,NW,304,0.0,0.0,97,0.00,,OVC030,0.69,VWS V14.01,2013-08-15 03:21:00,
2013-08-14 23:26:00,74.4,73.5,30.14,NW,304,0.0,0.0,97,0.00,,OVC030,0.69,VWS V14.01,2013-08-15 03:26:00,
2013-08-14 23:31:00,74.4,73.5,30.14,NW,304,0.0,0.0,97,0.01,,OVC030,0.70,VWS V14.01,2013-08-15 03:31:00,
2013-08-14 23:36:00,74.4,73.5,30.14,NW,305,0.0,0.0,97,0.02,,OVC030,0.71,VWS V14.01,2013-08-15 03:36:00,
2013-08-14 23:41:00,74.2,73.3,30.14,NW,305,0.0,0.0,97,0.02,,OVC030,0.71,VWS V14.01,2013-08-15 03:41:00,
2013-08-14 23:46:00,74.2,73.3,30.14,NW,305,0.0,0.0,97,0.09,,OVC030,0.78,VWS V14.01,2013-08-15 03:46:00,
2013-08-14 23:51:00,74.0,73.1,30.14,NW,305,0.0,0.0,97,0.18,,OVC030,0.87,VWS V14.01,2013-08-15 03:51:00,
2013-08-14 23:56:00,74.0,73.1,30.14,NW,305,0.0,0.0,97,0.28,,OVC030,0.97,VWS V14.01,2013-08-15 03:56:00,